Location: Grand Rapids
(42.9630°N, 85.6680°W)
Time: 02:31:29
(UTC-04:00)

A-11 Canister half - All Passes

Search period start: 30 May 2024 00:00
Search period end: 09 June 2024 00:00
Orbit: 1514 x 1685 km, 47.2° (Epoch: 29 May)

Date Brightness Start Highest point End Pass type
(mag) Time Alt. Az. Time Alt. Az. Time Alt. Az.
30 May - 02:00:29 10° SW 02:10:12 78° SSE 02:19:36 10° ENE visible
30 May - 04:05:56 10° W 04:15:29 69° N 04:24:46 10° ENE visible
30 May - 06:11:34 10° WNW 06:21:02 82° NNE 06:30:19 10° ESE daylight
30 May - 08:16:47 10° WNW 08:25:32 47° SW 08:34:12 10° SSE daylight
30 May - 10:25:43 10° WSW 10:28:34 12° WSW 10:31:25 10° SW daylight
30 May - 23:35:24 10° S 23:43:18 28° SE 23:50:59 10° ENE visible
31 May - 01:37:30 10° SW 01:47:14 76° SSE 01:56:38 10° ENE visible
31 May - 03:42:52 10° W 03:52:28 70° N 04:01:46 10° ENE visible
31 May - 05:48:34 10° WNW 05:58:03 80° NNE 06:07:19 10° ESE daylight
31 May - 07:53:46 10° WNW 08:02:37 50° SW 08:11:23 10° SSE daylight
31 May - 10:01:57 10° W 10:05:43 13° WSW 10:09:30 10° SSW daylight
31 May - 23:12:43 10° S 23:20:24 27° SE 23:27:53 10° ENE visible
01 Jun - 01:14:31 10° SW 01:24:15 73° SSE 01:33:40 10° ENE visible
01 Jun - 03:19:48 10° W 03:29:26 71° N 03:38:47 10° ENE visible
01 Jun - 05:25:33 10° WNW 05:35:03 79° NNE 05:44:19 10° ESE visible
01 Jun - 07:30:45 10° WNW 07:39:42 53° SW 07:48:32 10° SE daylight
01 Jun - 09:38:24 10° W 09:42:52 15° WSW 09:47:20 10° SSW daylight
01 Jun - 22:50:04 10° S 22:57:29 25° SE 23:04:45 10° E visible
02 Jun - 00:51:33 10° SW 01:01:17 70° SSE 01:10:41 10° ENE visible
02 Jun - 02:56:44 10° W 03:06:25 72° N 03:15:47 10° ENE visible
02 Jun - 05:02:31 10° WNW 05:12:03 77° NNE 05:21:19 10° ESE visible
02 Jun - 07:07:44 10° WNW 07:16:46 56° SW 07:25:41 10° SE daylight
02 Jun - 09:14:59 10° W 09:20:01 16° SW 09:25:04 10° SSW daylight
02 Jun - 22:27:26 10° S 22:34:36 23° SE 22:41:36 10° E visible
03 Jun - 00:28:36 10° SW 00:38:19 67° SSE 00:47:42 10° ENE visible
03 Jun - 02:33:41 10° W 02:43:23 73° N 02:52:47 10° ENE visible
03 Jun - 04:39:29 10° WNW 04:49:02 75° NNE 04:58:20 10° E visible
03 Jun - 06:44:44 10° WNW 06:53:50 59° SW 07:02:49 10° SE daylight
03 Jun - 08:51:38 10° W 08:57:10 18° SW 09:02:42 10° SSW daylight
03 Jun - 22:04:51 10° S 22:11:42 21° SE 22:18:25 10° E visible
04 Jun - 00:05:39 10° SW 00:15:21 64° SE 00:24:43 10° ENE visible
04 Jun - 02:10:37 10° W 02:20:22 74° NNW 02:29:47 10° ENE visible
04 Jun - 04:16:26 10° WNW 04:26:02 74° NNE 04:35:19 10° E visible
04 Jun - 06:21:42 10° WNW 06:30:55 62° SW 06:39:56 10° SE daylight
04 Jun - 08:28:21 10° W 08:34:19 19° SW 08:40:15 10° SSW daylight
04 Jun - 21:42:19 10° SSE 21:48:49 20° SE 21:55:11 10° E visible
04 Jun - 23:42:42 10° SW 23:52:23 61° SE 00:01:44 10° ENE visible
05 Jun - 01:47:33 10° W 01:57:21 75° NNW 02:06:48 10° ENE visible
05 Jun - 03:53:24 10° WNW 04:03:01 73° N 04:12:19 10° E visible
05 Jun - 05:58:42 10° WNW 06:07:58 65° SW 06:17:03 10° SE daylight
05 Jun - 08:05:06 10° W 08:11:27 21° SW 08:17:46 10° S daylight
05 Jun - 21:19:50 10° SSE 21:25:56 18° SE 21:31:55 10° E daylight
05 Jun - 23:19:47 10° SW 23:29:26 58° SE 23:38:45 10° ENE visible
06 Jun - 01:24:29 10° WSW 01:34:19 77° NNW 01:43:48 10° ENE visible
06 Jun - 03:30:22 10° WNW 03:40:00 72° N 03:49:19 10° E visible
06 Jun - 05:35:41 10° WNW 05:45:02 68° SSW 05:54:09 10° SE daylight
06 Jun - 07:41:54 10° W 07:48:35 23° SW 07:55:15 10° S daylight
06 Jun - 20:57:24 10° SSE 21:03:02 17° SE 21:08:35 10° E daylight
06 Jun - 22:56:51 10° SW 23:06:28 56° SE 23:15:46 10° ENE visible
07 Jun - 01:01:26 10° WSW 01:11:18 78° NNW 01:20:50 10° ENE visible
07 Jun - 03:07:18 10° WNW 03:16:58 71° N 03:26:18 10° E visible
07 Jun - 05:12:40 10° WNW 05:22:05 71° SSW 05:31:15 10° SE visible
07 Jun - 07:18:43 10° W 07:25:43 24° SW 07:32:40 10° S daylight
07 Jun - 20:35:03 10° SSE 20:40:10 15° SE 20:45:12 10° E daylight
07 Jun - 22:33:57 10° SW 22:43:31 53° SE 22:52:46 10° ENE visible
08 Jun - 00:38:22 10° WSW 00:48:17 80° NNW 00:57:50 10° ENE visible
08 Jun - 02:44:15 10° WNW 02:53:57 70° N 03:03:18 10° E visible
08 Jun - 04:49:39 10° WNW 04:59:08 74° SSW 05:08:20 10° SE visible
08 Jun - 06:55:34 10° WNW 07:02:51 26° SW 07:10:04 10° S daylight
08 Jun - 20:12:49 10° SSE 20:17:17 14° ESE 20:21:42 10° E daylight
08 Jun - 22:11:05 10° SSW 22:20:34 50° SE 22:29:45 10° ENE visible
